FW8830 Weather Reports


time (UTC)temp
C
wind
direction
speed
KPH
gust
KPH
rain 1hr
cm
rain 24hr
cm
rain mn
cm
humidity
%
barometer
mb
20260504050504 4 253 0.0 0.0 0.00 0.00 0.00 78 1012.7
20260504050004 5 253 0.0 0.0 0.00 0.00 0.00 78 1012.7
20260504045504 5 253 0.0 0.0 0.00 0.00 0.00 77 1012.7
20260504044505 5 253 0.0 0.0 0.00 0.00 0.00 77 1012.7
20260504043504 5 253 0.0 0.0 0.00 0.00 0.00 76 1012.6
20260504043004 5 253 0.0 0.0 0.00 0.00 0.00 76 1012.6
20260504042504 5 253 0.0 0.0 0.00 0.00 0.00 76 1012.6
20260504041504 5 253 0.0 0.0 0.00 0.00 0.00 75 1012.5
20260504040005 6 253 0.0 0.0 0.00 0.00 0.00 74 1012.4
20260504035004 6 253 0.0 0.0 0.00 0.00 0.00 73 1012.4
20260504034505 6 253 0.0 0.0 0.00 0.00 0.00 73 1012.3
20260504032504 6 253 0.0 0.0 0.00 0.00 0.00 71 1012.4
20260504032004 6 253 0.0 0.0 0.00 0.00 0.00 70 1012.3
20260504031504 6 253 0.0 0.0 0.00 0.00 0.00 70 1012.2
20260504031005 6 253 0.0 0.0 0.00 0.00 0.00 70 1012.2
20260504030504 7 253 0.0 0.0 0.00 0.00 0.00 69 1012.2
20260504025504 7 253 0.0 0.0 0.00 0.00 0.00 68 1012.3
20260504025005 7 253 0.0 0.0 0.00 0.00 0.00 68 1012.3
20260504024504 7 253 0.0 0.0 0.00 0.00 0.00 68 1012.2
20260504023504 7 253 0.0 0.0 0.00 0.00 0.00 67 1012.2
20260504023004 7 253 0.0 0.0 0.00 0.00 0.00 67 1012.2
20260504022004 8 253 1.6 3.2 0.00 0.00 0.00 66 1012.2
20260504021504 8 253 0.0 3.2 0.00 0.00 0.00 65 1012.1
20260504021004 8 253 0.0 3.2 0.00 0.00 0.00 64 1012.1
20260504020505 8 253 0.0 3.2 0.00 0.00 0.00 63 1012.1
20260504020004 9 253 0.0 0.0 0.00 0.00 0.00 62 1012.1
20260504015504 9 253 0.0 0.0 0.00 0.00 0.00 61 1012.1
20260504015004 9 253 0.0 1.6 0.00 0.00 0.00 61 1012.0
20260504014504 10 253 0.0 1.6 0.00 0.00 0.00 60 1012.0
20260504013504 10 253 0.0 0.0 0.00 0.00 0.00 59 1012.0
20260504013004 10 253 0.0 0.0 0.00 0.00 0.00 58 1012.0
20260504012004 11 253 0.0 0.0 0.00 0.00 0.00 55 1011.8
20260504011504 11 253 0.0 0.0 0.00 0.00 0.00 53 1011.8
20260504011004 11 253 0.0 0.0 0.00 0.00 0.00 52 1011.7
20260504010504 12 253 0.0 0.0 0.00 0.00 0.00 50 1011.7
20260504010004 12 253 0.0 0.0 0.00 0.00 0.00 49 1011.6
20260504005004 12 253 0.0 0.0 0.00 0.00 0.00 45 1011.5
20260504004504 12 253 0.0 0.0 0.00 0.00 0.00 44 1011.5
20260504004004 13 253 0.0 1.6 0.00 0.00 0.00 44 1011.4
20260504003504 13 253 0.0 3.2 0.00 0.00 0.00 43 1011.4
20260504002504 13 273 0.0 1.6 0.00 0.00 0.00 42 1011.2
20260504002004 13 273 0.0 4.8 0.00 0.00 0.00 42 1011.2
20260504001504 13 252 0.0 4.8 0.00 0.00 0.00 41 1011.2
20260504001004 13 288 3.2 11.3 0.00 0.00 0.00 40 1011.2
20260504000004 14 279 3.2 8.0 0.00 0.00 0.00 40 1011.2
20260503235504 14 233 1.6 3.2 0.00 0.00 0.00 39 1011.1
20260503233504 15 284 1.6 8.0 0.00 0.00 0.00 39 1011.0
20260503233004 15 255 8.0 12.9 0.00 0.00 0.00 38 1011.0
20260503232504 15 272 8.0 19.3 0.00 0.00 0.00 38 1011.0
20260503232003 15 252 3.2 8.0 0.00 0.00 0.00 38 1010.9
20260503231504 15 286 3.2 8.0 0.00 0.00 0.00 38 1010.9
20260503231004 15 280 4.8 12.9 0.00 0.00 0.00 37 1010.9
20260503230504 15 237 4.8 16.1 0.00 0.00 0.00 38 1010.9
20260503230004 15 285 8.0 16.1 0.00 0.00 0.00 37 1010.9
20260503225004 15 259 6.4 16.1 0.00 0.00 0.00 36 1010.9
20260503224503 15 295 6.4 14.5 0.00 0.00 0.00 37 1010.8
20260503224004 15 236 8.0 19.3 0.00 0.00 0.00 37 1010.9
20260503223504 15 256 4.8 14.5 0.00 0.00 0.00 36 1010.9
20260503223004 16 216 1.6 9.7 0.00 0.00 0.00 37 1010.9
20260503222504 16 274 3.2 19.3 0.00 0.00 0.00 37 1010.9
20260503221504 16 233 3.2 12.9 0.00 0.00 0.00 35 1010.9
20260503221004 16 262 8.0 14.5 0.00 0.00 0.00 35 1011.0
20260503220507 16 261 8.0 16.1 0.00 0.00 0.00 36 1011.1
20260503215004 16 225 6.4 16.1 0.00 0.00 0.00 35 1011.0
20260503214504 16 229 6.4 12.9 0.00 0.00 0.00 35 1010.9
20260503214004 16 310 6.4 14.5 0.00 0.00 0.00 37 1010.9
20260503213504 16 251 6.4 14.5 0.00 0.00 0.00 35 1010.9
20260503213004 16 280 6.4 16.1 0.00 0.00 0.00 35 1010.8
20260503211504 16 232 4.8 19.3 0.00 0.00 0.00 38 1010.7
20260503211004 15 284 8.0 19.3 0.00 0.00 0.00 36 1010.8
20260503210504 15 295 4.8 19.3 0.00 0.00 0.00 36 1010.8
20260503210004 16 267 9.7 22.5 0.00 0.00 0.00 36 1010.9
20260503205504 16 244 8.0 14.5 0.00 0.00 0.00 35 1010.8
20260503205004 16 220 6.4 14.5 0.00 0.00 0.00 37 1010.8
20260503204504 16 301 4.8 16.1 0.00 0.00 0.00 34 1010.8
20260503204005 17 237 9.7 22.5 0.00 0.00 0.00 35 1010.9
20260503203503 16 238 3.2 12.9 0.00 0.00 0.00 36 1010.9
20260503202504 16 281 6.4 16.1 0.00 0.00 0.00 36 1010.9
20260503202004 16 295 4.8 12.9 0.00 0.00 0.00 35 1010.9
20260503201504 16 253 8.0 19.3 0.00 0.00 0.00 37 1011.0
20260503201004 16 242 6.4 11.3 0.00 0.00 0.00 35 1011.1
20260503200504 16 261 9.7 20.9 0.00 0.00 0.00 36 1011.2
20260503200003 17 246 6.4 12.9 0.00 0.00 0.00 37 1011.1
20260503195503 16 289 4.8 19.3 0.00 0.00 0.00 35 1011.1
20260503194504 16 301 8.0 24.1 0.00 0.00 0.00 35 1011.3
20260503194004 16 282 8.0 24.1 0.00 0.00 0.00 36 1011.5
20260503192504 16 275 8.0 20.9 0.00 0.00 0.00 37 1011.6
20260503192004 16 261 14.5 22.5 0.00 0.00 0.00 34 1011.7
20260503191504 16 265 6.4 22.5 0.00 0.00 0.00 38 1011.6
20260503191004 15 244 8.0 20.9 0.00 0.00 0.00 37 1011.7
20260503190504 15 255 9.7 22.5 0.00 0.00 0.00 37 1011.8
20260503190004 15 261 8.0 22.5 0.00 0.00 0.00 36 1011.9
20260503185004 15 259 6.4 19.3 0.00 0.00 0.00 37 1012.0
20260503184004 15 255 6.4 14.5 0.00 0.00 0.00 38 1012.0
20260503183504 15 249 4.8 20.9 0.00 0.00 0.00 37 1012.0
20260503182504 15 269 9.7 19.3 0.00 0.00 0.00 37 1012.0
20260503182005 15 283 4.8 16.1 0.00 0.00 0.00 37 1012.1
20260503181505 15 255 8.0 14.5 0.00 0.00 0.00 37 1012.0
20260503181004 15 249 8.0 16.1 0.00 0.00 0.00 36 1012.1
20260503180004 14 274 8.0 14.5 0.00 0.00 0.00 38 1012.2
20260503175504 15 295 4.8 19.3 0.00 0.00 0.00 38 1012.2
20260503175004 15 277 4.8 11.3 0.00 0.00 0.00 37 1012.3
20260503174504 15 274 3.2 11.3 0.00 0.00 0.00 38 1012.4
20260503173504 15 348 4.8 11.3 0.00 0.00 0.00 38 1012.5
20260503173004 14 296 6.4 16.1 0.00 0.00 0.00 38 1012.6
20260503172504 14 273 4.8 11.3 0.00 0.00 0.00 40 1012.7
20260503172004 13 246 6.4 16.1 0.00 0.00 0.00 39 1012.7
20260503171504 13 323 4.8 16.1 0.00 0.00 0.00 40 1012.7
20260503171004 13 286 9.7 19.3 0.00 0.00 0.00 40 1013.0
20260503170504 13 275 9.7 19.3 0.00 0.00 0.00 40 1013.0
20260503151004 11 245 4.8 24.1 0.00 0.00 0.00 44 1014.3
20260503131004 8 275 3.2 9.7 0.00 0.00 0.00 53 1015.0
20260503130504 8 248 4.8 16.1 0.00 0.00 0.00 53 1015.1
20260503110504 3 234 1.6 4.8 0.00 0.00 0.00 74 1014.8
20260503090504 3 254 0.0 4.8 0.00 0.00 0.00 73 1014.0
20260503081004 4 313 0.0 0.0 0.00 0.00 0.00 73 1013.7
20260503080504 4 313 0.0 0.0 0.00 0.00 0.00 73 1013.7
20260503072504 5 311 0.0 0.0 0.00 0.00 0.00 71 1013.4
20260503071004 5 281 0.0 3.2 0.00 0.00 0.00 71 1013.6
20260503070504 5 281 1.6 3.2 0.00 0.00 0.00 70 1013.4
20260503055004 6 5 0.0 1.6 0.00 0.03 0.00 66 1013.5
20260503054504 6 328 0.0 1.6 0.00 0.03 0.00 66 1013.5
20260503054004 6 323 0.0 0.0 0.00 0.03 0.00 66 1013.6